Date String (YYYY-MM-DD hh:mm:ss) UTC,Instrument flags,absolute air pressure of the measurement (hPa),sample flow rate (lpm),inlet stack bypass flow (lpm),air temperature of the measurement (°C),ambient temperature measured by the external sensor (°C),aerosol sample conditioner tube jacket temperature (°C),OPC LED temperature (°C),internal box temperature (°C),relative humidity of the measurement (%),span deviation,mass concentration of particles derived from Lorenz-Mie calculation of OPC scattering (μg/m³),mass concentration of particles derived from Lorenz-Mie calculation of OPC scattering (μg/m³),mass concentration of particles derived from Lorenz-Mie calculation of OPC scattering (μg/m³)
DateTimeUTC,F1_M11,P_M11,Q1_M11,Q2_M11,T1_M11,T2_M11,T3_M11,T4_M11,T5_M11,U1_M11,ZSPAN_M11,X0_M11,X2_M11,X1_M11
2023-09-20 13:00:00,SystemResetWarning,0829.3,4.99,000.00,029.2,027.6,000.0,037.6,030.8,17.2,0000.0,0004.43,0002.29,0001.63
2023-09-20 13:01:00,SystemResetWarning,0829.4,4.99,000.00,029.2,027.6,000.0,037.6,030.7,17.2,0000.0,0004.69,0002.26,0001.61
2023-09-20 13:02:00,SystemResetWarning,0829.4,4.99,000.00,029.2,027.6,000.0,037.6,030.7,17.2,0000.0,0005.39,0002.19,0001.58
2023-09-20 13:03:00,SystemResetWarning,0829.3,5.00,000.00,029.2,027.6,000.0,037.6,030.7,17.2,0000.0,0005.33,0002.14,0001.57
2023-09-20 13:04:00,SystemResetWarning,0829.3,5.00,000.00,029.2,027.5,000.0,037.6,030.7,17.1,0000.0,0005.35,0002.19,0001.56
2023-09-20 13:05:00,SystemResetWarning,0829.4,5.00,000.00,029.2,027.5,000.0,037.6,030.7,17.1,0000.0,0005.14,0002.17,0001.55
2023-09-20 13:06:00,SystemResetWarning,0829.4,5.00,000.00,029.2,027.5,000.0,037.6,030.7,17.2,0000.0,0004.81,0002.15,0001.53
2023-09-20 13:07:00,SystemResetWarning,0829.3,5.00,000.00,029.1,027.5,000.0,037.6,030.7,17.3,0000.0,0004.79,0002.12,0001.52
2023-09-20 13:08:00,SystemResetWarning,0829.3,5.00,000.00,029.1,027.5,000.0,037.6,030.7,17.1,0000.0,0004.70,0002.08,0001.51
2023-09-20 13:09:00,SystemResetWarning,0829.2,4.99,000.00,029.1,027.5,000.0,037.6,030.7,16.9,0000.0,0004.62,0002.07,0001.50
2023-09-20 13:10:00,SystemResetWarning,0829.3,5.00,000.00,029.1,027.5,000.0,037.6,030.7,17.0,0000.0,0004.67,0002.08,0001.50
2023-09-20 13:11:00,SystemResetWarning,0829.3,5.00,000.00,029.1,027.5,000.0,037.5,030.7,17.1,0000.0,0004.61,0002.08,0001.50
2023-09-20 13:12:00,SystemResetWarning,0829.3,5.00,000.00,029.2,027.5,000.0,037.5,030.7,17.1,0000.0,0004.39,0002.07,0001.51
2023-09-20 13:13:00,SystemResetWarning,0829.3,5.01,000.00,029.1,027.5,000.0,037.5,030.7,17.1,0000.0,0003.37,0002.09,0001.53
2023-09-20 13:14:00,SystemResetWarning,0829.4,5.01,000.00,029.1,027.5,000.0,037.5,030.7,17.2,0000.0,0004.64,0002.15,0001.55
2023-09-20 13:15:00,SystemResetWarning,0829.3,5.01,000.00,029.1,027.5,000.0,037.5,030.7,17.1,0000.0,0005.51,0002.18,0001.56
2023-09-20 13:16:00,SystemResetWarning,0829.3,4.99,000.00,029.1,027.5,000.0,037.5,030.7,17.1,0000.0,0005.46,0002.16,0001.57
2023-09-20 13:17:00,SystemResetWarning,0829.3,4.99,000.00,029.1,027.5,000.0,037.5,030.7,17.0,0000.0,0005.49,0002.19,0001.60
2023-09-20 13:18:00,SystemResetWarning,0829.4,4.99,000.00,029.1,027.5,000.0,037.5,030.7,17.1,0000.0,0005.47,0002.22,0001.61
2023-09-20 13:19:00,SystemResetWarning,0829.3,5.01,000.00,029.1,027.5,000.0,037.5,030.7,17.1,0000.0,0005.53,0002.25,0001.62
2023-09-20 13:20:00,SystemResetWarning,0829.4,5.01,000.00,029.1,027.5,000.0,037.5,030.7,17.1,0000.0,0005.51,0002.26,0001.62
2023-09-20 13:21:00,SystemResetWarning,0829.4,4.99,000.00,029.1,027.5,000.0,037.5,030.7,17.1,0000.0,0005.41,0002.25,0001.62
2023-09-20 13:22:00,SystemResetWarning,0829.3,4.99,000.00,029.1,027.5,000.0,037.5,030.7,17.0,0000.0,0005.47,0002.24,0001.61
2023-09-20 13:23:00,SystemResetWarning,0829.3,5.01,000.00,029.1,027.6,000.0,037.5,030.7,17.1,0000.0,0005.54,0002.22,0001.60
2023-09-20 13:24:00,SystemResetWarning,0829.3,5.01,000.00,029.2,027.6,000.0,037.5,030.7,17.1,0000.0,0005.44,0002.20,0001.59
2023-09-20 13:25:00,SystemResetWarning,0829.3,4.99,000.00,029.1,027.6,000.0,037.5,030.7,17.1,0000.0,0004.60,0002.20,0001.58
2023-09-20 13:26:00,SystemResetWarning,0829.4,4.99,000.00,029.2,027.6,000.0,037.5,030.7,17.1,0000.0,0003.34,0002.13,0001.57
2023-09-20 13:27:00,SystemResetWarning,0829.4,5.01,000.00,029.2,027.6,000.0,037.5,030.7,17.3,0000.0,0003.34,0002.16,0001.58
2023-09-20 13:28:00,SystemResetWarning,0829.4,5.02,000.00,029.1,027.6,000.0,037.5,030.7,18.4,0000.0,0003.30,0002.15,0001.57
2023-09-20 13:29:00,SystemResetWarning,0829.3,4.99,000.00,029.1,027.6,000.0,037.5,030.7,17.8,0000.0,0004.26,0002.14,0001.56
2023-09-20 13:30:00,SystemResetWarning,0829.3,5.00,000.00,029.1,027.6,000.0,037.5,030.7,17.9,0000.0,0004.30,0002.14,0001.58
2023-09-20 13:31:00,SystemResetWarning,0829.3,5.00,000.00,029.1,027.6,000.0,037.5,030.7,17.8,0000.0,0004.37,0002.14,0001.58
2023-09-20 13:32:00,SystemResetWarning,0829.4,5.00,000.00,029.1,027.6,000.0,037.5,030.7,17.8,0000.0,0004.49,0002.17,0001.59
2023-09-20 13:33:00,SystemResetWarning,0829.4,5.00,000.00,029.1,027.6,000.0,037.5,030.7,17.6,0000.0,0004.47,0002.16,0001.61
2023-09-20 13:34:00,SystemResetWarning,0829.3,5.00,000.00,029.1,027.6,000.0,037.5,030.7,17.6,0000.0,0004.52,0002.22,0001.62
2023-09-20 13:35:00,SystemResetWarning,0829.3,5.00,000.00,029.1,027.6,000.0,037.5,030.8,17.5,0000.0,0004.50,0002.22,0001.63
2023-09-20 13:36:00,SystemResetWarning,0829.3,4.99,000.00,029.1,027.6,000.0,037.5,030.8,17.5,0000.0,0005.25,0002.22,0001.64
2023-09-20 13:37:00,SystemResetWarning,0829.3,5.00,000.00,029.1,027.6,000.0,037.5,030.7,17.7,0000.0,0005.75,0002.18,0001.64
2023-09-20 13:38:00,SystemResetWarning,0829.3,5.00,000.00,029.2,027.6,000.0,037.5,030.7,17.7,0000.0,0005.90,0002.17,0001.65
2023-09-20 13:39:00,SystemResetWarning,0829.4,4.99,000.00,029.2,027.6,000.0,037.5,030.7,18.0,0000.0,0006.37,0002.20,0001.66
2023-09-20 13:40:00,SystemResetWarning,0829.4,5.00,000.00,029.2,027.6,000.0,037.5,030.8,17.8,0000.0,0005.70,0002.20,0001.66
2023-09-20 13:41:00,SystemResetWarning,0829.4,5.00,000.00,029.1,027.6,000.0,037.5,030.8,17.1,0000.0,0005.76,0002.25,0001.65
2023-09-20 13:42:00,SystemResetWarning,0829.4,5.00,000.00,029.2,027.6,000.0,037.5,030.8,17.0,0000.0,0005.75,0002.24,0001.65
2023-09-20 13:43:00,SystemResetWarning,0829.4,5.01,000.00,029.2,027.6,000.0,037.5,030.8,17.4,0000.0,0005.65,0002.19,0001.65
2023-09-20 13:44:00,SystemResetWarning,0829.4,5.00,000.00,029.2,027.7,000.0,037.5,030.8,18.3,0000.0,0005.51,0002.18,0001.65
2023-09-20 13:45:00,SystemResetWarning,0829.3,4.99,000.00,029.2,027.7,000.0,037.5,030.8,18.8,0000.0,0005.35,0002.15,0001.65
2023-09-20 13:46:00,SystemResetWarning,0829.4,5.00,000.00,029.2,027.7,000.0,037.6,030.8,19.2,0000.0,0005.31,0002.11,0001.64
2023-09-20 13:47:00,SystemResetWarning,0829.4,5.01,000.00,029.2,027.7,000.0,037.6,030.8,19.3,0000.0,0004.81,0002.10,0001.64
2023-09-20 13:48:00,SystemResetWarning,0829.3,5.01,000.00,029.2,027.7,000.0,037.6,030.9,19.2,0000.0,0003.88,0002.09,0001.64
2023-09-20 13:49:00,SystemResetWarning,0829.3,4.99,000.00,029.2,027.6,000.0,037.6,030.8,17.3,0000.0,0003.68,0002.07,0001.65
2023-09-20 13:50:00,SystemResetWarning,0829.4,4.98,000.00,029.2,026.3,000.0,037.5,030.5,17.0,0000.0,0003.42,0002.06,0001.65
2023-09-20 13:51:00,SystemResetWarning,0829.4,5.02,000.00,029.0,024.8,000.0,037.4,029.9,17.3,0000.0,0003.11,0002.05,0001.64
2023-09-20 13:52:00,SystemResetWarning,0829.3,5.01,000.00,028.9,024.5,000.0,037.4,029.9,17.2,0000.0,0003.16,0001.99,0001.64
2023-09-20 13:53:00,SystemResetWarning,0829.3,4.99,000.00,028.7,024.8,000.0,037.3,029.8,18.5,0000.0,0003.23,0001.98,0001.64
2023-09-20 13:54:00,SystemResetWarning,0829.4,5.00,000.00,028.7,025.1,000.0,037.3,029.9,19.7,0000.0,0003.22,0001.98,0001.65
2023-09-20 13:55:00,SystemResetWarning,0829.4,5.00,000.00,028.6,025.5,000.0,037.3,029.9,19.0,0000.0,0003.38,0001.97,0001.65
2023-09-20 13:56:00,SystemResetWarning,0829.4,5.00,000.00,028.6,025.8,000.0,037.2,030.0,19.4,0000.0,0003.82,0001.99,0001.65
2023-09-20 13:57:00,SystemResetWarning,0829.4,5.00,000.00,028.6,026.0,000.0,037.2,030.0,19.4,0000.0,0004.60,0002.02,0001.65
2023-09-20 13:58:00,SystemResetWarning,0829.3,5.00,000.00,028.6,026.3,000.0,037.2,030.1,18.8,0000.0,0005.05,0002.02,0001.66
2023-09-20 13:59:00,SystemResetWarning,0829.4,5.00,000.00,028.6,026.5,000.0,037.1,030.1,20.0,0000.0,0005.05,0002.02,0001.65
